User: anonymous   Login
Location: Columbia
(38.9520°N, 92.3340°W)
Time: 02:37:48
(UTC-06:00)
Language:

CZ-2C R/B - Orbit

View from above orbital plane
View from above orbital plane
View from above satellite
View from above satellite

Ground track
Ground track

The orbit data is extracted from the following two-line orbital elements,

1 28480U 04046B   17018.54188701  .00000004  00000-0  17632-4 0  9994
2 28480  98.1937 124.4132 0141006 306.4732 132.6374 14.25623092632916
Epoch (UTC): 18 January 2017 13:00:19
Eccentricity: 0.0141006
inclination: 98.1937°
perigee height: 705 km
apogee height: 908 km
right ascension of ascending node: 124.4132°
argument of perigee: 306.4732°
revolutions per day: 14.25623092
mean anomaly at epoch: 132.6374°
orbit number at epoch: 63291

The dashed part of the orbit path shows where the satellite is in the earth's shadow,  

DLR